Dewpoint
31 28 26 27 28 28 28 24 24 24 27 25 23 23 26 47 48 48 49 48 50 52 56 58 51 51 46 43 43 43 43 43 42 43 41 41 41 40 40 41 40 40 40 40
28 24 27 31 29 27 26 24 24 27 28 26 23 22 24 45 43 41 49 52 53 54 55 56 55 48 48 44 42 43 43 42 43 44 43 42 42 41 41 42 40 40 40 40
27 25 29 29 25 26 25 25 25 26 28 25 22 18 19 39 43 44 43 49 53 54 55 55 55 55 50 47 42 42 43 43 44 44 44 44 44 43 41 40 40 40 40 41
27 29 26 27 23 27 24 27 28 28 26 20 22 15 18 21 32 43 46 47 52 54 55 55 55 56 53 51 49 43 43 43 44 45 43 42 41 40 41 40 41 40 41 41
17 26 26 26 22 28 25 29 28 28 26 22 19 16 15 21 22 28 44 48 51 53 55 55 55 56 57 55 53 46 44 43 43 44 43 43 42 42 43 42 40 40 41 41
28 30 31 26 28 28 28 27 25 28 26 20 20 16 15 19 21 24 26 32 46 50 52 54 55 55 54 56 54 50 46 45 43 43 44 43 42 43 42 41 40 41 41 41
18 20 24 28 21 23 27 23 18 16 18 17 20 18 15 19 20 23 26 30 41 48 51 53 54 55 55 56 56 52 48 46 44 44 44 44 43 43 42 41 41 40 41 41
17 13 17 23 25 24 25 23 19 13 15 16 19 12 19 24 27 27 27 30 31 44 49 50 52 54 54 55 56 56 54 47 45 43 44 44 44 44 43 42 42 41 41 40
15 9 17 25 26 25 21 22 23 20 20 16 18 15 19 24 25 27 27 28 32 35 35 44 49 50 52 54 54 54 56 54 50 45 44 44 45 45 44 43 42 41 41 41
16 14 16 20 25 27 24 26 18 20 11 13 16 15 20 20 21 26 24 25 27 30 32 36 40 47 50 52 53 54 54 56 52 49 45 45 46 46 46 45 42 41 41 40
20 16 11 10 13 14 17 21 19 18 18 15 13 15 21 21 20 23 25 25 26 25 28 31 36 39 41 44 50 52 53 55 54 49 46 46 47 46 45 44 43 42 41 40
20 17 14 5 12 22 21 19 16 13 7 13 11 12 14 16 19 21 18 19 21 22 23 26 35 39 42 43 44 45 46 52 55 52 49 46 48 48 47 46 45 44 42 41
19 10 7 7 7 8 14 17 19 17 19 15 9 8 14 14 12 13 17 18 20 21 21 23 31 36 40 42 43 44 45 46 50 54 51 47 47 48 48 47 46 44 44 42
28 17 9 5 4 10 13 14 14 14 15 12 13 10 11 12 13 12 13 16 21 22 23 23 22 26 33 41 42 43 44 45 46 51 52 50 48 48 48 48 45 45 45 43
23 17 17 16 14 17 17 17 17 16 15 13 11 11 12 12 13 14 15 21 23 23 23 23 24 27 31 38 41 43 42 43 44 46 48 49 48 49 49 47 45 45 44 43
26 19 23 19 19 19 18 17 17 15 16 16 15 14 17 18 17 19 18 22 22 23 24 25 26 27 32 38 41 42 41 41 41 42 44 45 47 48 47 46 45 44 43 42
23 24 19 12 15 14 11 11 12 13 20 16 16 20 24 24 24 22 24 23 22 23 24 27 28 29 30 35 41 41 40 39 40 42 43 45 45 45 45 44 43 42 41 40
15 20 19 15 12 8 13 16 16 25 28 29 27 28 29 29 27 25 27 27 24 25 26 27 29 31 32 36 41 40 38 38 39 40 41 43 44 43 43 43 42 40 38 38
17 15 14 13 13 13 14 22 23 19 26 29 28 28 29 29 27 24 30 30 29 27 27 27 29 32 34 34 39 39 37 37 37 38 39 40 41 40 39 39 37 36 36 35
21 18 16 17 14 12 23 26 28 27 21 27 25 26 27 26 23 25 28 28 29 30 30 29 29 32 33 33 38 37 37 35 35 36 36 37 38 38 38 36 35 35 34 33
22 21 16 16 18 19 24 26 27 19 20 27 24 23 24 23 24 24 24 25 26 29 31 32 31 30 31 33 38 37 36 35 36 35 35 36 35 36 35 33 33 33 33 32
21 22 21 22 18 16 24 24 20 22 20 19 20 20 20 21 22 23 23 24 25 26 27 29 31 31 31 32 37 37 36 37 35 35 34 34 34 33 32 32 33 33 32 31
18 22 21 21 22 22 23 22 18 18 18 18 19 20 20 19 19 20 21 22 22 24 25 27 28 30 33 33 33 35 37 37 34 35 34 33 32 32 33 32 32 32 32 31
22 22 22 22 20 16 19 16 18 17 17 18 18 18 19 19 19 19 19 20 20 22 24 26 27 29 31 32 31 33 35 34 33 34 33 32 33 33 33 33 32 31 30 29
17 17 16 15 16 15 16 16 16 18 18 18 19 18 18 18 18 19 19 20 22 24 24 25 25 27 28 32 33 32 35 31 29 30 30 30 29 30 30 31 31 30 31 28
17 15 12 10 18 18 16 18 18 17 17 17 18 17 18 18 17 18 19 20 23 23 24 26 27 29 30 31 33 32 31 29 28 26 26 27 29 29 29 29 29 33 30 28
Lifted_Index
4 4 4 4 4 3 2 2 2 1 1 1 1 1 -0 -1 -1 -0 1 1 2 2 2 1 1 0 1 2 3 5 8 9 10 11 11 11 11 11 11 12 12 12 12 12
4 4 4 4 4 3 3 2 2 2 1 1 1 1 0 -1 -1 -0 0 0 0 1 1 1 1 1 2 3 4 5 8 9 10 10 11 11 11 11 12 12 12 12 12 12
4 4 4 4 4 4 3 3 3 2 1 1 1 1 1 0 -0 -0 -0 -0 -1 -0 0 1 2 2 3 3 4 5 7 9 10 10 11 11 11 11 12 12 12 12 13 13
4 4 4 4 4 4 3 3 2 2 2 1 1 1 2 2 1 -0 -0 -0 -1 -1 -0 0 1 2 3 4 4 5 6 7 9 9 10 11 11 11 11 12 12 13 13 13
4 4 4 4 4 4 3 3 2 2 2 2 2 2 2 2 2 1 1 0 -1 -1 -1 -0 1 1 2 3 4 4 4 5 6 7 8 8 9 9 10 11 12 12 13 13
4 4 5 5 5 5 4 3 2 2 2 2 2 3 2 3 3 3 3 2 0 -1 -1 -1 -0 0 1 2 3 3 2 3 3 4 4 4 5 7 8 9 10 11 12 12
4 4 5 6 6 5 5 4 2 1 1 2 3 3 3 3 4 4 5 5 3 1 -0 -0 -0 -0 1 2 2 2 2 2 2 2 2 2 2 3 6 7 9 10 11 11
4 4 6 6 6 6 6 5 3 2 1 2 3 3 4 4 4 5 6 6 5 3 2 1 1 0 1 1 1 2 2 2 2 2 1 1 1 2 3 5 7 8 9 10
4 4 5 7 7 7 6 6 5 4 2 2 3 4 4 4 5 5 6 6 6 6 5 4 3 2 1 1 1 2 2 2 2 1 1 1 1 1 2 3 6 7 8 8
6 5 5 6 7 7 7 7 6 6 3 2 3 4 4 5 5 5 6 6 7 7 7 7 5 4 3 3 2 2 3 3 2 2 2 2 2 1 1 3 5 7 8 8
7 6 5 6 7 7 7 7 7 6 4 3 3 4 5 5 5 6 6 7 7 7 7 7 7 6 6 5 4 4 3 3 3 2 2 2 2 2 2 3 4 5 7 8
8 7 6 6 7 8 8 8 8 7 6 5 4 4 6 6 6 7 7 8 8 7 7 7 8 7 7 7 6 5 5 4 3 3 3 2 2 2 2 2 2 3 5 7
8 7 5 5 6 7 7 7 8 7 6 5 4 5 6 7 7 7 8 8 8 7 7 7 7 8 7 7 7 6 6 5 5 4 3 2 2 1 1 1 1 2 3 5
8 7 5 5 6 6 6 6 6 6 5 5 4 5 7 8 8 7 7 7 7 8 7 7 7 8 8 7 7 6 6 6 5 4 3 2 2 1 1 1 1 1 2 3
7 6 5 5 5 6 5 5 5 5 5 5 5 6 7 8 8 7 7 7 7 7 7 8 8 8 8 7 7 6 6 6 5 4 3 2 2 2 2 1 1 2 2 3
6 5 4 4 5 5 4 4 5 6 6 7 7 7 8 8 7 7 7 8 8 8 8 8 8 8 8 7 7 6 6 6 6 5 4 3 2 2 2 2 3 3 3 3
5 5 4 4 4 4 4 5 6 6 7 7 7 7 7 7 7 7 7 8 8 8 8 8 8 8 8 7 7 6 6 6 6 6 5 4 4 3 3 3 3 4 4 4
5 5 5 5 4 4 5 6 6 6 7 7 7 7 7 7 7 7 7 8 8 9 8 8 8 8 8 8 7 7 6 6 6 6 6 5 4 4 4 3 3 4 4 4
5 5 5 5 4 5 6 7 7 6 7 7 7 7 7 7 7 7 7 8 8 9 8 8 8 8 8 8 8 7 6 6 6 6 6 5 5 4 4 4 4 4 4 4
5 5 5 5 5 5 6 7 7 7 7 7 7 7 8 7 7 7 7 8 8 9 9 9 8 8 8 8 8 7 6 6 6 6 6 6 5 4 4 4 4 5 5 5
6 6 6 6 5 6 6 7 7 7 7 8 9 9 9 8 9 9 9 9 9 9 9 9 9 9 9 9 8 8 7 6 6 6 6 6 5 4 4 4 5 6 6 6
7 7 7 7 6 6 7 8 8 8 9 10 10 10 10 10 10 11 11 10 10 10 10 10 10 10 10 9 9 9 8 8 7 6 6 6 5 5 5 5 5 6 7 7
8 8 8 8 7 7 8 9 10 11 11 11 12 12 12 12 12 12 12 12 11 11 11 11 11 11 11 10 10 9 9 9 8 7 7 6 6 5 5 5 6 7 7 7
10 10 9 9 8 8 9 10 11 12 12 12 13 13 13 13 12 12 13 13 13 13 12 12 12 11 11 10 10 9 9 9 9 8 7 6 6 5 5 6 7 8 8 8
11 10 10 9 9 10 10 11 11 11 11 12 12 13 12 12 12 12 12 13 13 13 13 12 11 10 10 9 9 8 8 8 8 7 7 6 6 6 6 6 8 9 9 9
12 11 10 10 10 11 11 11 11 10 11 11 11 11 11 11 11 11 11 12 12 12 12 12 10 9 8 8 7 7 7 7 7 6 7 7 6 6 6 7 8 10 11 11